Time,TemperatureF,DewpointF,PressureIn,WindDirection,WindDirectionDegrees,WindSpeedMPH,WindSpeedGustMPH,Humidity,HourlyPrecipIn,Conditions,Clouds,dailyrainin,SoftwareType,DateUTC
2013-06-10 00:03:00,68.0,65.0,29.84,SE,141,2.0,8.0,91,0.00,,,0.00,,2013-06-10 04:03:00,
2013-06-10 00:12:00,68.0,65.0,29.84,SE,141,2.0,8.0,91,0.00,,,0.00,,2013-06-10 04:12:00,
2013-06-10 00:23:00,68.0,65.0,29.84,South,172,3.0,7.0,91,0.00,,,0.00,,2013-06-10 04:23:00,
2013-06-10 00:33:00,68.0,66.0,29.84,SSE,160,2.0,5.0,92,0.01,,,0.01,,2013-06-10 04:33:00,
2013-06-10 00:42:00,68.0,66.0,29.84,SSE,160,2.0,5.0,92,0.01,,,0.01,,2013-06-10 04:42:00,
2013-06-10 00:52:00,67.0,65.0,29.84,SSW,208,3.0,6.0,93,0.05,,,0.05,,2013-06-10 04:52:00,
2013-06-10 01:02:00,67.0,65.0,29.83,South,177,3.0,6.0,94,0.06,,,0.06,,2013-06-10 05:02:00,
2013-06-10 01:12:00,67.0,65.0,29.83,South,177,3.0,6.0,94,0.06,,,0.06,,2013-06-10 05:12:00,
2013-06-10 01:22:00,67.0,66.0,29.83,SE,133,1.0,3.0,95,0.10,,,0.10,,2013-06-10 05:22:00,
2013-06-10 01:32:00,66.0,65.0,29.83,SSE,160,3.0,4.0,95,0.11,,,0.12,,2013-06-10 05:32:00,
2013-06-10 01:42:00,66.0,65.0,29.83,SSE,160,3.0,4.0,95,0.11,,,0.12,,2013-06-10 05:42:00,
2013-06-10 01:52:00,66.0,65.0,29.81,SSE,158,2.0,6.0,95,0.09,,,0.14,,2013-06-10 05:52:00,
2013-06-10 02:02:00,66.0,65.0,29.81,SSW,204,3.0,8.0,95,0.08,,,0.14,,2013-06-10 06:02:00,
2013-06-10 02:12:00,66.0,65.0,29.81,SSW,204,3.0,8.0,95,0.08,,,0.14,,2013-06-10 06:12:00,
2013-06-10 02:22:00,66.0,65.0,29.80,East,79,1.0,3.0,95,0.04,,,0.14,,2013-06-10 06:22:00,
2013-06-10 02:32:00,65.0,64.0,29.80,ESE,110,1.0,4.0,95,0.02,,,0.14,,2013-06-10 06:32:00,
2013-06-10 02:42:00,65.0,64.0,29.80,ESE,110,1.0,4.0,95,0.02,,,0.14,,2013-06-10 06:42:00,
2013-06-10 02:53:00,65.0,64.0,29.79,SSW,198,2.0,5.0,96,0.00,,,0.14,,2013-06-10 06:53:00,
2013-06-10 03:02:00,65.0,64.0,29.79,West,262,2.0,5.0,96,0.02,,,0.16,,2013-06-10 07:02:00,
2013-06-10 03:12:00,65.0,64.0,29.79,West,262,2.0,5.0,96,0.02,,,0.16,,2013-06-10 07:12:00,
2013-06-10 03:22:00,65.0,64.0,29.79,ESE,117,0.0,3.0,96,0.04,,,0.18,,2013-06-10 07:22:00,
2013-06-10 03:32:00,65.0,64.0,29.78,SE,135,1.0,2.0,96,0.04,,,0.18,,2013-06-10 07:32:00,
2013-06-10 03:42:00,65.0,64.0,29.78,SE,135,1.0,2.0,96,0.04,,,0.18,,2013-06-10 07:42:00,
2013-06-10 03:52:00,65.0,64.0,29.78,ESE,105,4.0,7.0,96,0.05,,,0.19,,2013-06-10 07:52:00,
2013-06-10 04:02:00,65.0,64.0,29.78,South,172,2.0,8.0,96,0.06,,,0.22,,2013-06-10 08:02:00,
2013-06-10 04:12:00,65.0,64.0,29.78,South,172,2.0,8.0,96,0.06,,,0.22,,2013-06-10 08:12:00,
2013-06-10 04:22:00,65.0,64.0,29.78,SE,125,2.0,6.0,97,0.08,,,0.26,,2013-06-10 08:22:00,
2013-06-10 04:32:00,64.0,63.0,29.78,South,176,1.0,6.0,97,0.08,,,0.26,,2013-06-10 08:32:00,
2013-06-10 04:42:00,64.0,63.0,29.78,South,176,1.0,6.0,97,0.08,,,0.26,,2013-06-10 08:42:00,
2013-06-10 04:52:00,65.0,64.0,29.78,SSW,201,1.0,5.0,97,0.07,,,0.26,,2013-06-10 08:52:00,
2013-06-10 05:02:00,65.0,64.0,29.77,South,177,1.0,3.0,97,0.04,,,0.26,,2013-06-10 09:02:00,
2013-06-10 05:12:00,65.0,64.0,29.77,South,177,1.0,3.0,97,0.04,,,0.26,,2013-06-10 09:12:00,
2013-06-10 05:22:00,65.0,64.0,29.77,SW,232,0.0,3.0,97,0.00,,,0.26,,2013-06-10 09:22:00,
2013-06-10 05:32:00,65.0,64.0,29.77,SW,231,1.0,2.0,97,0.00,,,0.26,,2013-06-10 09:32:00,
2013-06-10 05:42:00,65.0,64.0,29.77,SW,231,1.0,2.0,97,0.00,,,0.26,,2013-06-10 09:42:00,
2013-06-10 05:53:00,65.0,64.0,29.78,SW,231,0.0,1.0,97,0.00,,,0.26,,2013-06-10 09:53:00,
2013-06-10 06:03:00,65.0,64.0,29.78,SSW,210,1.0,2.0,97,0.00,,,0.26,,2013-06-10 10:03:00,
2013-06-10 06:12:00,65.0,64.0,29.78,SSW,210,1.0,2.0,97,0.00,,,0.26,,2013-06-10 10:12:00,
2013-06-10 06:22:00,65.0,64.0,29.77,SSW,197,0.0,2.0,97,0.00,,,0.26,,2013-06-10 10:22:00,
2013-06-10 06:33:00,65.0,64.0,29.78,SSW,197,0.0,1.0,97,0.00,,,0.26,,2013-06-10 10:33:00,
2013-06-10 06:42:00,65.0,64.0,29.78,SSW,197,0.0,1.0,97,0.00,,,0.26,,2013-06-10 10:42:00,
2013-06-10 06:52:00,65.0,64.0,29.78,WSW,242,1.0,1.0,98,0.00,,,0.26,,2013-06-10 10:52:00,
2013-06-10 07:02:00,65.0,64.0,29.79,WSW,250,2.0,3.0,98,0.00,,,0.26,,2013-06-10 11:02:00,
2013-06-10 07:12:00,65.0,64.0,29.79,WSW,250,2.0,3.0,98,0.00,,,0.26,,2013-06-10 11:12:00,
2013-06-10 07:22:00,65.0,64.0,29.80,SSW,207,1.0,4.0,98,0.00,,,0.26,,2013-06-10 11:22:00,
2013-06-10 07:32:00,65.0,64.0,29.80,SSW,212,2.0,5.0,98,0.00,,,0.26,,2013-06-10 11:32:00,
2013-06-10 07:42:00,65.0,64.0,29.80,SSW,212,2.0,5.0,98,0.00,,,0.26,,2013-06-10 11:42:00,
2013-06-10 07:52:00,65.0,64.0,29.80,SW,217,3.0,7.0,97,0.00,,,0.26,,2013-06-10 11:52:00,
2013-06-10 08:02:00,66.0,65.0,29.81,SW,218,4.0,9.0,97,0.00,,,0.26,,2013-06-10 12:02:00,
2013-06-10 08:12:00,66.0,65.0,29.81,SW,218,4.0,9.0,97,0.00,,,0.26,,2013-06-10 12:12:00,
2013-06-10 08:32:00,66.0,64.0,29.80,WSW,246,4.0,9.0,93,0.00,,,0.26,,2013-06-10 12:32:00,
2013-06-10 08:42:00,66.0,64.0,29.80,WSW,246,4.0,9.0,93,0.00,,,0.26,,2013-06-10 12:42:00,
2013-06-10 08:52:00,67.0,64.0,29.80,SW,219,5.0,8.0,91,0.00,,,0.26,,2013-06-10 12:52:00,
2013-06-10 09:02:00,67.0,64.0,29.81,SSW,195,4.0,11.0,89,0.00,,,0.26,,2013-06-10 13:02:00,
2013-06-10 09:12:00,67.0,64.0,29.81,SSW,195,4.0,11.0,89,0.00,,,0.26,,2013-06-10 13:12:00,
2013-06-10 09:22:00,68.0,64.0,29.80,South,187,5.0,9.0,87,0.00,,,0.26,,2013-06-10 13:22:00,
2013-06-10 09:32:00,68.0,64.0,29.80,WNW,287,6.0,11.0,86,0.00,,,0.26,,2013-06-10 13:32:00,
2013-06-10 09:42:00,68.0,64.0,29.80,WNW,287,6.0,11.0,86,0.00,,,0.26,,2013-06-10 13:42:00,
2013-06-10 09:52:00,69.0,63.0,29.80,West,263,5.0,10.0,82,0.00,,,0.26,,2013-06-10 13:52:00,
2013-06-10 10:02:00,69.0,64.0,29.80,WSW,242,4.0,10.0,83,0.00,,,0.26,,2013-06-10 14:02:00,
2013-06-10 10:12:00,70.0,64.0,29.80,SW,218,5.0,11.0,82,0.00,,,0.26,,2013-06-10 14:12:00,
2013-06-10 10:22:00,70.0,64.0,29.80,SW,218,5.0,11.0,82,0.00,,,0.26,,2013-06-10 14:22:00,
2013-06-10 10:32:00,70.0,64.0,29.80,West,264,7.0,12.0,80,0.00,,,0.26,,2013-06-10 14:32:00,
2013-06-10 10:42:00,70.0,64.0,29.80,West,264,7.0,12.0,80,0.00,,,0.26,,2013-06-10 14:42:00,
2013-06-10 10:52:00,70.0,64.0,29.81,SSE,150,5.0,11.0,81,0.00,,,0.26,,2013-06-10 14:52:00,
2013-06-10 11:02:00,71.0,65.0,29.81,SSW,201,3.0,12.0,80,0.00,,,0.26,,2013-06-10 15:02:00,
2013-06-10 11:12:00,71.0,65.0,29.81,SSW,201,3.0,12.0,80,0.00,,,0.26,,2013-06-10 15:12:00,
2013-06-10 11:22:00,72.0,64.0,29.81,WSW,253,6.0,10.0,77,0.00,,,0.26,,2013-06-10 15:22:00,
2013-06-10 11:33:00,72.0,64.0,29.81,SW,217,7.0,13.0,76,0.00,,,0.26,,2013-06-10 15:33:00,
2013-06-10 11:43:00,71.0,64.0,29.81,South,169,5.0,10.0,78,0.00,,,0.26,,2013-06-10 15:43:00,
2013-06-10 11:53:00,71.0,64.0,29.81,South,169,5.0,10.0,78,0.00,,,0.26,,2013-06-10 15:53:00,
2013-06-10 12:03:00,71.0,64.0,29.81,WSW,245,5.0,10.0,79,0.00,,,0.26,,2013-06-10 16:03:00,
2013-06-10 12:12:00,72.0,64.0,29.82,SW,233,6.0,13.0,76,0.00,,,0.26,,2013-06-10 16:12:00,
2013-06-10 12:23:00,72.0,64.0,29.82,SW,233,6.0,13.0,76,0.00,,,0.26,,2013-06-10 16:23:00,
2013-06-10 12:33:00,72.0,63.0,29.82,WSW,250,6.0,14.0,74,0.00,,,0.26,,2013-06-10 16:33:00,
2013-06-10 12:42:00,72.0,63.0,29.81,West,273,5.0,11.0,74,0.00,,,0.26,,2013-06-10 16:42:00,
2013-06-10 12:53:00,72.0,63.0,29.81,West,273,5.0,11.0,74,0.00,,,0.26,,2013-06-10 16:53:00,
2013-06-10 13:03:00,72.0,63.0,29.80,SW,227,5.0,11.0,74,0.00,,,0.26,,2013-06-10 17:03:00,
2013-06-10 13:14:00,73.0,63.0,29.80,SW,221,4.0,11.0,72,0.00,,,0.26,,2013-06-10 17:14:00,
2013-06-10 13:27:00,73.0,63.0,29.80,SW,221,4.0,11.0,72,0.00,,,0.26,,2013-06-10 17:27:00,
2013-06-10 13:38:00,74.0,64.0,29.80,SW,226,2.0,13.0,72,0.00,,,0.26,,2013-06-10 17:38:00,
2013-06-10 13:48:00,74.0,64.0,29.80,West,262,4.0,12.0,70,0.00,,,0.26,,2013-06-10 17:48:00,
2013-06-10 13:58:00,74.0,64.0,29.80,West,262,4.0,12.0,70,0.00,,,0.26,,2013-06-10 17:58:00,
2013-06-10 14:07:00,74.0,64.0,29.80,SSW,213,5.0,9.0,70,0.00,,,0.26,,2013-06-10 18:07:00,
2013-06-10 14:14:00,74.0,64.0,29.80,SSW,213,5.0,9.0,70,0.00,,,0.26,,2013-06-10 18:14:00,
2013-06-10 14:24:00,74.0,64.0,29.80,WSW,248,3.0,9.0,72,0.00,,,0.26,,2013-06-10 18:24:00,
2013-06-10 14:34:00,74.0,64.0,29.80,WNW,291,3.0,9.0,71,0.00,,,0.26,,2013-06-10 18:34:00,
2013-06-10 14:48:00,74.0,64.0,29.80,WNW,291,3.0,9.0,71,0.00,,,0.26,,2013-06-10 18:48:00,
2013-06-10 14:55:00,75.0,65.0,29.80,West,265,5.0,10.0,70,0.00,,,0.26,,2013-06-10 18:55:00,
2013-06-10 15:03:00,76.0,65.0,29.80,WNW,282,4.0,9.0,69,0.00,,,0.26,,2013-06-10 19:03:00,
2013-06-10 15:12:00,76.0,65.0,29.80,WNW,282,4.0,9.0,69,0.00,,,0.26,,2013-06-10 19:12:00,
2013-06-10 15:22:00,76.0,64.0,29.80,SW,219,3.0,10.0,67,0.00,,,0.26,,2013-06-10 19:22:00,
2013-06-10 15:32:00,76.0,65.0,29.80,WSW,256,4.0,8.0,68,0.00,,,0.26,,2013-06-10 19:32:00,
2013-06-10 15:42:00,75.0,64.0,29.80,West,269,5.0,11.0,69,0.00,,,0.26,,2013-06-10 19:42:00,
2013-06-10 15:53:00,75.0,64.0,29.80,West,269,5.0,11.0,69,0.00,,,0.26,,2013-06-10 19:53:00,
2013-06-10 16:03:00,76.0,64.0,29.80,WSW,243,3.0,12.0,67,0.00,,,0.26,,2013-06-10 20:03:00,
2013-06-10 16:12:00,76.0,64.0,29.80,WSW,243,3.0,12.0,67,0.00,,,0.26,,2013-06-10 20:12:00,
2013-06-10 16:22:00,75.0,64.0,29.80,WSW,245,5.0,9.0,68,0.00,,,0.26,,2013-06-10 20:22:00,
2013-06-10 16:32:00,75.0,65.0,29.80,West,270,2.0,11.0,70,0.00,,,0.26,,2013-06-10 20:32:00,
2013-06-10 16:43:00,75.0,65.0,29.80,West,270,2.0,11.0,70,0.00,,,0.26,,2013-06-10 20:43:00,
2013-06-10 16:52:00,76.0,64.0,29.80,NNE,13,3.0,9.0,67,0.00,,,0.26,,2013-06-10 20:52:00,
2013-06-10 17:02:00,77.0,64.0,29.80,WNW,290,7.0,10.0,64,0.00,,,0.26,,2013-06-10 21:02:00,
2013-06-10 17:12:00,77.0,64.0,29.80,WNW,290,7.0,10.0,64,0.00,,,0.26,,2013-06-10 21:12:00,
2013-06-10 17:22:00,78.0,64.0,29.79,West,260,6.0,10.0,62,0.00,,,0.26,,2013-06-10 21:22:00,
2013-06-10 17:33:00,78.0,64.0,29.79,NNW,333,4.0,10.0,62,0.00,,,0.26,,2013-06-10 21:33:00,
2013-06-10 17:43:00,78.0,64.0,29.79,NNW,333,4.0,10.0,62,0.00,,,0.26,,2013-06-10 21:43:00,
2013-06-10 17:53:00,78.0,63.0,29.79,SSE,158,4.0,11.0,61,0.00,,,0.26,,2013-06-10 21:53:00,
2013-06-10 18:03:00,79.0,63.0,29.80,West,274,4.0,12.0,59,0.00,,,0.26,,2013-06-10 22:03:00,
2013-06-10 18:13:00,79.0,63.0,29.80,West,274,4.0,12.0,59,0.00,,,0.26,,2013-06-10 22:13:00,
2013-06-10 18:22:00,80.0,65.0,29.79,West,281,2.0,8.0,60,0.00,,,0.26,,2013-06-10 22:22:00,
2013-06-10 18:33:00,80.0,64.0,29.79,WSW,251,5.0,9.0,58,0.00,,,0.26,,2013-06-10 22:33:00,
2013-06-10 18:42:00,81.0,65.0,29.78,WSW,245,2.0,7.0,58,0.00,,,0.26,,2013-06-10 22:42:00,
2013-06-10 18:52:00,81.0,65.0,29.78,WSW,245,2.0,7.0,58,0.00,,,0.26,,2013-06-10 22:52:00,
2013-06-10 19:02:00,80.0,64.0,29.79,WSW,253,3.0,7.0,58,0.00,,,0.26,,2013-06-10 23:02:00,
2013-06-10 19:12:00,79.0,63.0,29.80,NW,323,3.0,8.0,58,0.00,,,0.26,,2013-06-10 23:12:00,
2013-06-10 19:22:00,79.0,63.0,29.80,NW,323,3.0,8.0,58,0.00,,,0.26,,2013-06-10 23:22:00,
2013-06-10 19:32:00,79.0,63.0,29.80,WNW,300,3.0,6.0,59,0.00,,,0.26,,2013-06-10 23:32:00,
2013-06-10 19:42:00,78.0,62.0,29.80,West,267,1.0,4.0,58,0.00,,,0.26,,2013-06-10 23:42:00,
2013-06-10 19:52:00,78.0,62.0,29.80,West,267,1.0,4.0,58,0.00,,,0.26,,2013-06-10 23:52:00,
2013-06-10 20:02:00,78.0,62.0,29.80,NNW,342,1.0,6.0,59,0.00,,,0.26,,2013-06-11 00:02:00,
2013-06-10 20:12:00,76.0,64.0,29.81,NE,56,4.0,6.0,67,0.00,,,0.26,,2013-06-11 00:12:00,
2013-06-10 20:22:00,76.0,64.0,29.81,NE,56,4.0,6.0,67,0.00,,,0.26,,2013-06-11 00:22:00,
2013-06-10 20:32:00,75.0,64.0,29.81,NNW,340,2.0,5.0,69,0.00,,,0.26,,2013-06-11 00:32:00,
2013-06-10 20:42:00,75.0,65.0,29.82,NNE,25,2.0,4.0,70,0.00,,,0.26,,2013-06-11 00:42:00,
2013-06-10 20:52:00,75.0,65.0,29.82,NNE,25,2.0,4.0,70,0.00,,,0.26,,2013-06-11 00:52:00,
2013-06-10 21:02:00,75.0,65.0,29.82,NNE,27,4.0,5.0,70,0.00,,,0.26,,2013-06-11 01:02:00,
2013-06-10 21:12:00,75.0,65.0,29.82,North,358,0.0,3.0,71,0.00,,,0.26,,2013-06-11 01:12:00,
2013-06-10 21:22:00,75.0,65.0,29.82,North,358,0.0,3.0,71,0.00,,,0.26,,2013-06-11 01:22:00,
2013-06-10 21:32:00,74.0,64.0,29.83,North,358,0.0,1.0,72,0.00,,,0.26,,2013-06-11 01:32:00,
2013-06-10 21:42:00,74.0,65.0,29.83,North,354,0.0,1.0,73,0.00,,,0.26,,2013-06-11 01:42:00,
2013-06-10 21:52:00,74.0,65.0,29.83,North,354,0.0,1.0,73,0.00,,,0.26,,2013-06-11 01:52:00,
2013-06-10 22:02:00,74.0,65.0,29.83,WNW,291,0.0,1.0,74,0.00,,,0.26,,2013-06-11 02:02:00,
2013-06-10 22:12:00,73.0,65.0,29.84,WNW,291,0.0,0.0,76,0.00,,,0.26,,2013-06-11 02:12:00,
2013-06-10 22:22:00,73.0,65.0,29.84,WNW,291,0.0,0.0,76,0.00,,,0.26,,2013-06-11 02:22:00,
2013-06-10 22:32:00,73.0,65.0,29.84,WNW,291,0.0,1.0,77,0.00,,,0.26,,2013-06-11 02:32:00,
2013-06-10 22:42:00,73.0,66.0,29.85,WNW,291,0.0,1.0,78,0.00,,,0.26,,2013-06-11 02:42:00,
2013-06-10 22:52:00,73.0,66.0,29.85,WNW,291,0.0,1.0,78,0.00,,,0.26,,2013-06-11 02:52:00,
2013-06-10 23:02:00,73.0,66.0,29.85,West,264,0.0,1.0,78,0.00,,,0.26,,2013-06-11 03:02:00,
2013-06-10 23:12:00,72.0,65.0,29.86,West,264,0.0,1.0,79,0.00,,,0.26,,2013-06-11 03:12:00,
2013-06-10 23:22:00,72.0,65.0,29.86,West,264,0.0,1.0,79,0.00,,,0.26,,2013-06-11 03:22:00,
2013-06-10 23:32:00,72.0,65.0,29.86,West,264,0.0,0.0,80,0.00,,,0.26,,2013-06-11 03:32:00,
2013-06-10 23:43:00,71.0,65.0,29.86,West,264,0.0,0.0,81,0.00,,,0.26,,2013-06-11 03:43:00,
2013-06-10 23:53:00,71.0,65.0,29.86,West,264,0.0,0.0,81,0.00,,,0.26,,2013-06-11 03:53:00,